GFSFLT2_700_spd_168.txt.gz
Wind_Speed
19 21 23 24 24 24 23 23 22 22 20 19 17 15 14 15 18 19 19 18 18 19 21 21 22 23 24
21 22 22 23 24 24 23 23 23 23 22 20 20 19 17 17 17 19 21 22 23 22 23 23 22 23 24
25 24 24 24 25 25 25 25 24 24 24 24 23 21 21 20 19 19 19 19 20 21 22 22 22 23 24
27 26 26 26 26 26 26 27 27 26 25 25 26 25 23 22 22 21 20 21 21 21 22 23 23 23 25
28 28 28 28 28 27 28 28 27 27 27 26 26 26 26 25 25 24 24 24 25 25 26 27 27 28 28
30 29 29 30 29 29 29 29 29 28 29 28 28 28 28 28 28 27 27 28 28 28 29 28 29 29 29
32 32 32 31 31 31 31 30 30 29 30 29 29 30 29 29 28 28 28 28 28 28 28 28 28 29 30
34 34 34 34 34 33 32 31 31 30 31 30 29 30 30 30 29 29 28 28 28 28 27 28 29 29 30
36 36 37 37 36 36 34 34 33 31 31 32 30 31 31 31 30 29 29 27 27 26 26 27 28 28 28
40 39 38 39 39 37 37 36 35 34 31 32 30 31 32 30 30 29 28 27 26 25 25 26 26 26 26
40 39 39 38 37 36 39 39 39 36 33 31 30 30 31 30 29 29 28 27 25 25 25 25 25 25 25
38 38 38 37 35 38 40 38 40 38 36 35 33 30 29 29 29 28 29 29 27 26 26 25 25 24 24
36 35 35 37 39 40 38 35 36 35 35 38 32 33 30 30 29 29 30 30 30 29 28 27 27 25 26
31 30 31 34 37 38 37 35 35 34 33 36 36 33 35 34 36 33 33 33 33 34 30 30 30 25 26
33 30 30 32 31 31 32 34 34 32 31 33 36 35 37 37 38 37 37 37 36 33 33 28 27 25 26
32 33 33 33 33 32 31 31 31 28 28 29 32 33 34 38 36 37 36 33 32 32 30 27 24 25 26
25 26 27 28 28 28 29 31 31 28 27 28 28 27 27 27 26 26 27 28 29 29 27 25 22 24 25

GFSFLT2_700_spd_171.txt.gz
Wind_Speed
21 22 22 24 23 22 22 22 22 22 23 22 21 21 20 18 18 17 17 18 18 17 16 19 21 20 21
22 23 23 25 25 25 24 23 24 24 24 24 23 22 21 20 19 20 20 20 21 21 22 22 23 25 25
22 23 24 24 25 26 26 26 25 26 26 26 25 24 23 22 21 21 21 21 22 22 23 23 23 23 24
27 26 25 25 25 26 26 26 27 26 27 27 27 26 26 25 24 23 23 22 22 22 23 23 24 24 25
30 29 28 28 27 27 27 27 27 27 27 27 28 28 28 27 27 26 26 25 25 25 25 25 26 26 27
31 30 29 30 30 30 30 30 30 28 29 29 28 28 28 28 28 28 29 29 29 28 28 29 29 29 29
32 30 31 32 32 32 32 32 32 30 31 30 28 29 29 29 29 29 29 30 30 30 30 30 30 30 30
32 32 33 33 33 35 34 35 34 33 33 33 30 31 31 30 30 30 30 30 30 31 31 31 30 30 30
32 34 34 35 37 37 35 37 35 35 32 36 33 33 32 32 31 30 30 31 30 30 30 30 29 29 28
33 36 37 36 36 37 37 37 36 38 36 36 35 35 34 32 31 29 29 30 30 30 30 30 30 28 27
36 35 37 37 36 37 37 38 37 37 36 36 35 35 37 34 32 31 29 29 29 29 29 29 30 29 27
39 37 37 38 37 38 38 38 38 37 34 35 34 33 36 36 35 31 31 29 29 29 28 29 30 30 29
35 34 34 35 34 33 35 34 35 35 35 32 33 33 33 35 38 33 35 32 32 31 30 30 32 33 30
32 33 35 34 32 30 30 30 31 31 31 32 32 31 31 31 34 35 34 34 34 35 36 35 37 35 32
31 31 31 31 32 32 30 31 31 30 29 30 29 31 30 30 31 36 36 36 38 38 36 36 36 34 31
28 28 27 25 26 29 30 31 31 30 30 28 28 29 28 25 24 27 29 27 28 30 32 32 28 30 28
27 27 24 22 23 24 24 24 24 25 26 28 29 29 29 26 24 26 25 25 26 27 27 26 24 23 24

GFSFLT2_700_spd_177.txt.gz
Wind_Speed
20 22 22 20 20 21 20 20 21 21 21 21 21 21 20 18 17 16 15 12 12 14 16 17 17 16 16
23 23 23 24 22 22 22 21 20 20 20 20 20 20 21 21 19 18 17 16 15 14 16 17 18 19 20
26 25 25 25 24 24 23 23 22 21 20 19 19 20 20 21 20 20 19 18 18 18 17 17 18 19 21
27 27 26 27 26 26 25 25 23 22 21 21 20 21 21 22 22 21 21 20 20 20 20 19 19 20 21
28 27 26 27 29 29 26 26 25 23 22 23 22 22 22 22 22 23 23 23 23 22 22 23 23 23 23
30 29 27 29 30 30 28 27 26 26 25 24 24 24 24 24 23 24 24 25 26 26 25 25 26 26 27
29 28 31 31 32 29 29 29 28 28 27 25 27 26 27 26 26 26 26 27 27 28 28 28 28 27 28
29 26 28 30 31 31 30 30 29 28 31 29 28 28 29 28 28 27 27 27 28 29 28 29 29 29 29
32 29 28 27 30 31 30 34 33 31 32 33 27 29 29 29 28 27 28 28 28 30 30 30 29 29 29
32 30 31 31 32 31 33 34 34 34 30 34 31 31 30 29 28 28 28 30 30 30 32 31 30 29 30
34 34 34 34 35 37 37 38 38 37 35 34 30 30 32 30 28 28 28 29 30 32 32 32 31 29 29
33 32 32 33 34 34 34 34 34 32 33 31 30 28 29 28 28 26 29 29 30 29 31 32 32 31 30
24 24 26 27 29 29 30 31 31 31 31 31 29 28 27 27 27 27 27 27 28 28 31 32 33 35 33
21 21 22 24 25 26 27 28 29 28 30 30 28 27 26 25 25 23 24 26 28 31 31 30 30 32 33
22 23 24 26 26 27 27 27 26 23 23 25 27 28 28 27 27 25 26 27 28 29 30 31 31 33 33
25 24 24 25 26 25 25 25 24 22 22 23 26 27 28 27 28 27 29 29 30 30 29 27 26 28 30
27 27 26 26 25 23 23 23 22 21 21 22 23 24 25 23 25 28 28 29 29 28 27 26 24 23 25

GFSFLT2_700_spd_180.txt.gz
Wind_Speed
26 24 24 27 26 24 24 22 21 21 21 20 20 19 18 17 17 16 15 14 14 15 15 15 15 14 14
26 25 26 27 27 26 26 25 23 23 22 21 20 19 18 17 17 16 16 15 15 15 16 17 18 18 19
29 26 26 27 27 27 27 28 27 26 25 24 23 22 21 19 18 17 16 16 16 16 17 18 19 20 21
32 28 30 29 29 28 28 29 29 28 27 26 25 24 23 22 20 19 18 18 18 18 19 20 20 21 22
33 31 29 31 32 32 30 29 29 29 29 28 27 26 25 24 23 21 21 20 21 21 21 21 22 23 24
33 32 29 31 34 35 33 30 28 29 29 29 28 28 27 27 25 24 23 23 23 23 23 23 23 24 25
33 29 31 31 34 32 32 33 30 28 29 27 29 28 29 28 28 26 26 26 25 25 25 26 26 26 26
34 31 31 30 31 31 29 30 31 30 31 28 27 28 31 30 30 30 29 28 28 28 28 28 28 28 28
33 31 31 31 31 31 29 30 30 29 31 33 27 30 31 30 30 30 31 31 30 30 30 30 30 30 30
33 32 32 32 33 32 32 31 32 32 29 33 31 32 32 32 33 32 32 32 32 31 31 31 31 30 31
34 33 33 33 35 35 35 36 36 36 35 37 35 34 35 32 31 32 32 32 31 31 31 30 30 30 31
30 30 31 32 33 35 35 35 36 34 35 33 33 31 32 32 30 28 30 30 30 30 30 29 29 29 29
23 23 24 25 26 28 29 30 30 31 32 31 31 31 31 30 29 27 27 29 29 28 29 29 29 28 29
21 21 21 22 23 25 25 26 27 27 28 29 30 31 30 29 29 25 25 27 26 28 28 28 28 30 30
26 24 24 24 24 25 25 26 26 26 26 27 26 27 26 27 27 26 27 28 28 29 28 27 28 27 27
24 25 27 28 27 26 25 24 24 24 24 24 25 25 24 23 25 25 29 30 30 31 29 28 26 28 28
23 22 22 24 27 27 26 24 23 22 23 24 24 23 22 20 23 25 26 26 26 26 26 26 24 25 29